CAPE
0 nan nan nan nan nan nan nan nan nan nan nan nan nan nan nan nan nan nan nan nan nan nan nan nan nan 0 1 1 1 3 5 6 6 6 5 7 7 8 6 6 8 8 7 7 8 7 7 7 6 6 6 6 6 5 5 5 5 3 4 4 5 5 6 6 6 5 6 5 5 3 2 2 2 2 3 3 3 4 6 6 7 9 13 13 19
nan nan nan nan nan nan nan nan nan nan 0 nan nan nan nan nan nan nan nan nan nan nan nan nan nan nan nan 1 1 1 3 4 5 5 5 5 6 6 5 7 7 8 8 9 9 8 8 7 7 7 5 4 4 4 3 3 3 3 2 2 2 1 2 3 3 3 3 4 4 4 2 1 1 1 1 2 3 3 5 7 7 8 9 14 14 21
nan nan nan nan nan nan nan nan nan nan 0 nan nan nan nan nan nan nan nan nan nan nan nan nan nan nan nan nan 2 2 1 2 3 3 2 2 3 3 2 3 3 4 5 6 6 7 6 6 6 4 3 2 1 1 1 2 2 1 1 0 0 nan 0 0 0 0 0 1 1 1 0 0 1 1 1 3 4 4 5 6 6 8 10 14 14 21
nan nan nan nan nan nan nan nan nan nan nan 0 nan nan nan nan nan nan nan nan nan nan nan nan nan nan nan nan nan nan 0 0 0 0 nan nan nan nan nan nan nan nan 0 1 1 2 2 0 0 0 0 0 0 0 nan 0 0 0 nan nan nan nan nan nan nan 0 0 0 0 0 0 1 2 2 3 4 4 4 6 7 7 9 12 15 15 18
nan nan nan 0 0 nan nan nan nan nan nan nan nan nan nan nan nan nan nan nan nan nan nan nan nan nan nan nan nan nan nan nan nan nan nan nan nan nan nan nan nan nan nan nan nan nan nan nan nan nan nan nan nan nan nan nan nan nan nan nan nan nan nan nan nan nan nan nan nan nan nan 0 1 1 2 3 4 4 5 6 6 9 12 16 16 19
nan nan nan 0 0 nan nan nan nan nan nan nan nan nan nan nan nan nan nan nan nan nan nan nan nan nan nan nan nan nan nan nan nan nan nan nan nan nan nan nan nan nan nan nan nan nan nan nan nan nan nan nan nan nan nan nan nan nan nan nan nan nan nan nan nan nan nan nan nan nan nan nan nan nan nan 1 2 2 4 5 5 7 9 14 14 18
nan nan nan nan nan nan nan nan nan nan nan nan nan nan nan nan nan nan nan nan nan nan nan nan nan nan nan nan nan nan nan nan nan nan nan nan nan nan nan nan nan nan nan nan nan nan nan nan nan nan nan nan nan nan nan nan nan nan nan nan nan nan nan nan nan nan nan nan nan nan nan nan nan nan nan nan 0 0 1 3 3 4 7 11 11 17
nan nan nan nan nan nan nan nan nan nan nan nan nan nan nan nan nan nan nan nan nan nan nan nan nan nan nan nan nan nan nan nan nan nan nan nan nan nan nan nan nan nan nan nan nan nan nan nan nan nan nan nan nan nan nan nan nan nan nan nan nan nan nan nan nan nan nan nan nan nan nan nan nan nan nan nan nan nan 0 1 1 1 2 5 5 6
nan nan nan nan nan nan nan nan nan nan nan nan nan nan nan nan nan nan nan nan nan nan nan nan nan nan nan nan nan nan nan nan nan nan nan nan nan nan nan nan nan nan nan nan nan nan nan nan nan nan nan nan nan nan nan nan nan nan nan nan nan nan nan nan nan nan nan nan nan nan nan nan nan nan nan nan 0 0 0 0 0 1 2 4 4 6
nan nan nan nan nan nan nan nan nan nan nan nan nan nan nan nan nan nan nan nan nan nan nan nan nan nan nan nan nan nan nan nan nan nan nan nan nan nan nan nan nan nan nan nan nan nan nan nan nan nan nan nan nan nan nan nan nan nan nan nan nan nan nan nan nan nan nan nan nan nan nan 0 0 0 0 0 1 1 0 1 1 1 2 4 4 5
nan nan nan nan nan nan nan nan nan nan nan nan nan nan nan nan nan nan nan nan nan nan nan nan nan nan nan nan nan nan nan nan nan nan nan nan nan nan nan nan nan nan nan nan nan nan nan nan nan nan nan nan nan nan nan nan nan nan nan nan nan nan nan nan nan nan nan nan 0 0 1 1 1 1 1 1 1 1 1 1 1 1 2 3 3 5
nan nan nan nan nan nan nan nan nan nan nan nan nan nan nan nan nan nan nan nan nan nan nan nan nan nan nan nan nan nan nan nan nan nan nan nan nan nan nan nan nan nan nan nan nan nan nan nan nan nan nan nan nan nan nan nan nan nan nan nan nan nan nan nan nan nan 0 1 1 1 1 2 2 2 2 2 2 2 1 2 2 2 3 4 4 6
nan nan nan nan nan nan nan nan nan nan nan nan nan nan nan nan nan nan nan nan nan nan nan nan nan nan nan nan nan nan nan nan nan nan nan nan nan nan nan nan nan nan nan nan nan nan nan nan nan nan nan nan nan nan nan nan nan nan nan nan nan nan nan 0 0 0 1 1 1 1 1 2 2 2 2 3 3 3 3 4 4 4 6 7 7 8
nan nan nan nan nan nan nan nan nan nan nan nan nan nan nan nan nan nan nan nan nan nan nan nan nan nan nan nan nan nan nan nan nan nan nan nan nan nan nan nan nan nan nan nan nan nan nan nan nan nan nan nan nan nan nan nan nan nan nan nan nan nan nan 0 0 0 1 1 1 1 1 2 2 2 2 2 3 3 4 5 5 6 8 9 9 10
nan nan nan nan nan nan nan nan nan nan nan nan nan nan nan nan nan nan nan nan nan nan nan nan nan nan nan nan nan nan nan nan nan nan nan nan nan nan nan nan nan nan nan nan nan nan nan nan nan nan nan nan nan nan nan nan nan nan nan nan nan nan nan 0 0 0 1 1 2 2 2 2 2 2 3 3 3 3 3 5 5 7 8 9 9 11
nan nan nan nan nan nan nan nan nan nan nan nan nan nan nan nan nan nan nan nan nan nan nan nan nan nan nan nan nan nan nan nan nan nan nan nan nan nan nan nan nan nan nan nan nan nan nan nan nan nan nan nan nan nan nan nan nan nan nan nan nan nan nan 0 0 0 1 1 2 2 2 3 3 3 3 3 3 3 3 5 5 7 8 9 9 10
nan nan nan nan nan nan nan nan nan nan nan nan nan nan nan nan nan nan nan nan nan nan nan nan nan nan nan nan nan nan nan nan nan nan nan nan nan nan nan nan nan nan nan nan nan nan nan nan nan nan nan nan nan nan nan nan nan nan nan nan nan nan nan 0 0 0 1 1 2 2 3 3 3 3 3 3 4 4 4 5 5 7 8 9 9 10
nan nan nan nan nan nan nan nan nan nan nan nan nan nan nan nan nan nan nan nan nan nan nan nan nan nan nan nan nan nan nan nan nan nan nan nan nan nan nan nan nan nan nan nan nan nan nan nan nan nan nan nan nan nan nan nan nan nan nan nan nan 0 0 1 1 1 2 3 3 3 4 4 4 4 4 4 5 5 6 7 7 8 9 10 10 11
nan nan nan nan nan nan nan nan nan nan nan nan nan nan nan nan nan nan nan nan nan nan nan nan nan nan nan nan nan nan nan nan nan nan nan nan nan nan nan nan nan nan nan nan nan nan nan nan nan nan nan nan nan nan nan nan nan nan 0 0 0 1 1 1 1 2 3 4 5 5 4 5 6 6 6 7 8 8 8 9 9 11 11 12 12 13
nan nan nan nan nan nan nan nan nan nan nan nan nan nan nan nan nan nan nan nan nan nan nan nan nan nan nan nan nan nan nan nan nan nan nan nan nan nan nan nan nan nan nan nan nan nan nan nan nan nan nan nan nan nan nan nan nan 0 0 1 1 1 2 3 3 3 4 6 6 6 6 7 6 6 7 8 9 9 10 9 9 9 10 12 12 14
nan nan nan nan nan nan nan nan nan nan nan nan nan nan nan nan nan nan nan nan nan nan nan nan nan nan nan nan nan nan nan nan nan nan nan nan nan nan nan nan nan nan nan nan nan nan nan nan nan nan nan nan nan nan nan nan nan 0 1 1 1 2 3 4 4 5 6 6 6 6 5 6 5 5 6 6 7 7 8 8 8 9 11 12 12 14
nan nan nan nan nan nan nan nan nan nan nan nan nan nan nan nan nan nan nan nan nan nan nan nan nan nan nan nan nan nan nan nan nan nan nan nan nan nan nan nan nan nan nan nan nan nan nan nan nan nan nan nan nan nan nan nan nan 0 1 1 1 1 2 4 4 4 4 5 5 5 5 5 4 4 5 5 6 6 7 7 7 8 11 12 12 13
nan nan nan nan nan nan nan nan nan nan nan nan nan nan nan nan nan nan nan nan nan nan nan nan nan nan nan nan nan nan nan nan nan nan nan nan nan nan nan nan nan nan nan nan nan nan nan nan nan nan nan nan nan nan nan nan nan nan 0 0 0 0 1 1 1 2 3 3 4 4 4 5 6 6 5 6 7 7 8 8 8 9 10 12 12 13
nan nan nan nan nan nan nan nan nan nan nan nan nan nan nan nan nan nan nan nan nan nan nan nan nan nan nan nan nan nan nan nan nan nan nan nan nan nan nan nan nan nan nan nan nan nan nan nan nan nan nan nan nan nan nan nan nan nan nan nan nan nan 0 0 0 1 2 3 4 4 4 6 7 7 8 9 9 9 10 11 11 12 13 13 13 15
nan nan nan nan nan nan nan nan nan nan nan nan nan nan nan nan nan nan nan nan nan nan nan nan nan nan nan nan nan nan nan nan nan nan nan nan nan nan nan nan nan nan nan nan nan nan nan nan nan nan nan nan nan nan nan nan nan nan nan nan nan nan nan 0 0 1 1 2 4 4 5 7 8 8 9 10 11 11 12 12 12 13 13 13 13 14
nan nan nan nan nan nan nan nan nan nan nan nan nan nan 0 2 1 1 nan nan nan nan nan nan nan nan nan nan nan nan nan nan nan nan nan nan nan nan nan nan nan nan nan nan nan nan nan nan nan nan nan nan nan nan nan nan nan nan nan nan nan nan nan 0 0 1 1 2 3 3 4 7 7 7 9 10 11 11 12 13 13 14 13 14 14 15
nan nan nan nan nan nan nan nan 0 0 nan 0 nan nan nan nan nan nan nan nan nan nan nan nan nan nan nan nan nan nan nan nan nan nan nan nan nan nan nan nan nan nan nan nan nan nan nan nan nan nan nan nan nan nan nan nan nan nan nan nan nan nan nan nan nan 0 0 1 2 2 4 6 6 6 8 9 11 11 12 12 12 13 14 13 13 14
nan nan nan nan nan nan nan nan nan nan nan 0 2 2 0 nan nan nan nan nan nan nan nan nan nan nan nan nan nan nan nan nan nan nan nan nan nan nan nan nan nan nan nan nan nan nan nan nan nan nan nan nan nan nan nan nan nan nan nan nan nan nan nan nan nan nan nan 1 2 2 3 5 7 7 8 9 11 11 11 12 12 13 13 8 8 3
0 0 0 nan nan nan 3 8 14 14 15 3 1 1 nan nan nan nan nan nan nan nan nan nan nan nan nan nan nan nan nan nan nan nan nan nan nan nan nan nan nan nan nan nan nan nan nan nan nan nan nan nan nan nan nan nan nan nan nan nan nan nan nan nan nan nan nan 0 1 1 3 5 7 7 8 9 10 10 12 13 13 13 10 4 4 nan
nan nan nan 0 0 0 0 0 nan nan 12 23 9 9 1 nan nan nan nan nan nan nan nan nan nan nan nan nan nan nan nan nan nan nan nan nan nan nan nan nan nan nan nan nan nan nan nan nan nan nan nan nan nan nan nan nan nan nan nan nan nan nan nan nan nan nan nan 0 1 1 2 4 6 6 7 9 9 9 11 11 11 9 3 1 1 0
nan nan nan nan nan nan nan nan nan nan nan 7 19 19 nan nan nan nan nan nan nan nan nan nan nan nan nan nan nan nan nan nan nan nan nan nan nan nan nan nan nan nan nan nan nan nan nan nan nan nan nan nan nan nan nan nan nan nan nan nan nan nan nan nan nan nan 0 0 1 1 1 3 4 4 6 7 8 8 9 10 10 9 1 nan nan 0
nan nan nan nan nan nan nan nan nan nan nan nan nan nan nan nan nan nan nan nan nan nan nan nan nan nan nan 0 nan nan nan nan nan nan nan nan nan nan nan nan nan nan nan nan nan nan nan nan nan nan nan nan nan nan nan nan nan nan nan nan nan nan nan nan nan nan nan nan 0 0 0 1 1 1 2 4 4 4 4 5 5 6 0 nan nan 1
nan nan nan nan nan nan nan nan nan nan nan nan nan nan nan nan nan nan nan nan nan nan nan nan nan nan nan nan 0 0 nan nan nan nan nan nan nan nan nan nan nan nan nan nan nan nan nan nan nan nan nan nan nan nan nan nan nan nan nan nan nan nan nan nan nan nan nan nan nan nan 0 0 1 1 1 2 3 3 4 5 5 8 10 1 1 1
nan nan nan nan nan nan nan nan nan nan nan nan nan nan nan nan nan nan nan nan nan nan nan nan nan nan nan nan nan nan nan nan 2 2 3 nan nan nan nan nan nan nan nan nan nan nan nan nan nan nan nan nan nan nan nan nan nan nan nan nan nan nan nan nan nan nan nan nan nan nan nan nan nan nan nan 1 2 2 4 7 7 10 10 7 7 3
nan nan nan nan nan nan nan nan nan nan nan nan nan nan nan nan nan nan nan nan nan nan nan nan nan nan nan nan nan nan nan nan nan nan 5 nan nan nan nan nan nan nan nan nan nan nan nan nan nan nan nan nan nan nan nan nan nan nan nan nan nan nan nan nan nan nan nan nan nan nan nan nan nan nan nan nan 2 2 5 7 7 9 10 11 11 6
nan nan nan nan nan nan nan nan nan nan nan nan nan nan nan nan nan nan nan nan nan nan nan nan nan nan nan nan nan nan nan nan nan nan 4 nan nan nan nan nan nan nan nan nan nan nan nan nan nan nan nan nan nan nan nan nan nan nan nan nan nan nan nan nan nan nan nan nan nan nan nan nan nan nan nan 0 3 3 4 4 4 5 5 7 7 7
nan nan nan nan nan nan nan nan nan nan nan nan nan nan nan nan nan nan nan nan nan nan nan nan nan nan nan nan nan nan nan nan nan nan 1 nan nan nan nan 0 0 0 nan nan nan nan nan nan nan nan nan nan nan nan nan nan nan nan nan nan nan nan nan nan nan nan nan nan nan nan nan nan nan nan nan 0 nan nan 1 3 3 3 5 5 5 6
nan nan nan nan nan nan nan nan nan nan nan nan nan nan nan nan nan nan nan nan nan nan nan nan nan nan nan 2 nan nan nan nan nan nan nan nan nan nan nan 0 0 0 nan nan nan nan 0 nan nan nan nan nan nan nan nan nan nan nan nan nan nan nan nan nan nan nan nan nan nan nan nan nan nan nan nan nan nan nan nan nan nan nan 2 2 2 4
nan nan nan nan nan nan nan nan nan nan nan nan nan nan nan nan nan nan nan nan nan nan nan nan nan nan nan nan nan nan nan nan nan nan nan nan nan nan nan 0 0 0 nan nan nan nan nan nan nan nan nan nan nan nan nan nan nan nan nan nan nan nan nan nan nan nan nan nan nan nan nan nan nan nan nan nan nan nan nan nan nan nan nan nan nan nan
nan nan nan nan nan nan nan nan nan nan nan nan nan nan nan nan nan nan nan nan nan nan nan nan nan nan nan nan nan nan nan nan nan nan nan nan nan nan nan nan nan nan nan nan nan nan nan nan nan nan nan nan nan nan nan nan nan nan nan nan nan nan nan nan nan nan nan nan nan nan nan nan nan nan nan nan nan nan nan nan nan nan nan nan nan nan
nan nan nan nan nan nan nan nan nan nan nan nan nan nan nan nan nan nan nan nan nan nan nan nan nan nan nan nan nan nan nan nan nan nan nan nan nan nan nan nan nan nan nan nan nan nan nan nan nan 0 nan nan nan nan nan nan nan nan 1 nan nan nan nan nan nan nan nan nan nan nan nan nan nan nan nan nan nan nan nan nan nan nan nan nan nan nan
1 0 nan nan nan nan nan nan nan nan nan nan nan nan nan nan nan nan nan nan nan nan nan nan nan nan nan nan nan nan nan nan nan nan nan nan nan nan nan nan nan nan nan nan nan nan 0 0 0 0 0 nan nan nan nan nan nan nan nan nan nan nan nan nan nan nan nan nan nan nan nan nan nan nan nan nan nan nan nan nan nan nan nan nan nan nan
nan nan nan nan nan nan nan nan nan nan nan nan nan nan nan nan nan nan nan nan nan nan nan nan nan nan nan nan nan nan nan nan nan nan nan nan nan nan nan nan nan nan nan nan nan nan nan 2 2 0 0 nan nan nan nan nan nan nan nan nan nan nan nan nan nan nan nan nan nan nan nan nan nan nan nan nan nan nan nan nan nan nan nan nan nan nan
nan nan nan nan nan nan nan nan nan nan nan nan nan nan nan nan nan nan nan nan nan nan nan nan nan nan nan nan nan nan nan nan nan nan nan nan nan nan nan nan nan nan nan nan nan nan nan 0 0 nan nan nan nan nan nan nan nan nan nan nan nan nan nan nan nan nan nan nan nan nan nan nan nan nan nan nan nan nan nan nan nan nan nan nan nan nan
nan nan nan nan nan nan nan nan nan nan nan nan nan nan nan nan 0 0 nan nan nan nan nan nan nan nan nan nan nan nan nan nan nan nan nan nan 4 4 nan nan nan nan nan nan nan nan nan 0 0 nan nan 0 nan nan nan nan nan nan nan nan nan nan nan nan nan nan nan nan nan nan nan nan nan nan nan nan nan nan nan nan nan nan nan nan nan nan
nan nan nan nan nan nan nan nan nan nan nan nan nan nan nan nan nan nan nan nan nan nan nan nan nan nan nan nan nan nan nan nan nan nan nan nan nan nan nan nan nan nan nan nan nan nan nan nan nan nan 0 0 0 0 nan nan nan nan nan nan nan nan nan nan nan nan nan nan nan nan nan nan nan nan nan nan nan nan nan nan nan nan nan nan nan nan
nan nan nan nan nan nan nan nan nan nan nan nan nan nan nan nan nan nan nan nan nan nan nan nan nan nan nan nan nan nan nan nan nan nan nan nan nan nan nan nan nan nan nan nan nan nan nan nan nan 0 0 nan nan nan nan nan nan nan nan nan nan nan nan nan nan nan nan nan nan nan nan nan nan nan nan nan nan nan nan nan nan nan nan nan nan nan
nan nan nan nan nan nan nan nan nan nan nan nan nan nan nan nan nan nan nan nan nan nan 1 nan nan nan nan nan nan nan nan nan nan nan nan nan nan nan nan nan nan nan nan 1 1 2 nan nan nan 0 0 nan nan nan nan nan nan nan nan nan nan nan nan nan nan nan nan nan nan nan nan nan nan nan nan nan nan nan nan nan nan nan nan nan nan nan
nan nan nan nan nan nan nan nan nan nan nan nan nan nan nan nan 5 5 nan nan nan nan nan nan nan nan nan nan nan nan nan 0 0 0 nan nan nan nan nan nan nan nan nan nan nan nan nan nan nan nan nan nan nan nan nan nan nan nan nan nan nan nan nan nan nan nan nan nan nan nan nan nan nan nan nan nan nan nan nan nan nan nan nan nan nan nan
nan nan nan nan nan nan nan nan nan nan nan nan nan nan nan nan nan nan nan nan nan nan nan nan nan nan nan nan nan nan nan 0 0 0 nan nan 0 0 nan nan nan 0 0 nan nan nan nan nan nan nan nan nan nan nan nan nan nan nan nan nan nan nan nan nan nan nan nan nan nan nan nan nan nan nan nan nan nan nan nan nan nan nan nan nan nan nan
nan nan nan nan nan nan nan 0 0 0 0 0 0 0 nan nan nan nan nan nan nan nan nan nan nan nan nan nan nan nan 0 0 0 0 0 nan 0 0 nan 0 0 0 0 nan nan nan nan nan nan nan nan 3 nan nan nan nan nan nan nan nan nan nan nan nan nan nan nan nan nan nan nan nan nan nan nan nan nan nan nan nan nan nan nan nan nan nan
CIN
-0 nan nan nan nan nan nan nan nan nan nan nan nan nan nan nan nan nan nan nan nan nan nan nan nan nan -0 -0 -0 -0 -0 -0 -0 -0 -0 -0 -0 -0 -0 -0 -0 -0 -0 -0 -0 -0 -0 -0 -0 -0 -0 -0 -0 -0 -0 -0 -0 -0 -0 -0 -0 -0 -0 -0 -0 -0 -0 -0 -0 -0 -0 -0 -0 -0 -0 -0 -0 -0 -0 -0 -0 -0 -0 -0 -0 -0
nan nan nan nan nan nan nan nan nan nan -0 nan nan nan nan nan nan nan nan nan nan nan nan nan nan nan nan -0 -0 -0 -0 -0 -0 -0 -0 -0 -0 -0 -0 -0 -0 -0 -0 -0 -0 -0 -0 -0 -0 -0 -0 -0 -0 -0 -0 -0 -0 -0 -0 -0 -0 -0 -0 -0 -0 -0 -0 -0 -0 -0 -0 -0 -0 -0 -0 -0 -0 -0 -0 -0 -0 -0 -0 -0 -0 -0
nan nan nan nan nan nan nan nan nan nan -0 nan nan nan nan nan nan nan nan nan nan nan nan nan nan nan nan nan -0 -0 -0 -0 -0 -0 -0 -0 -0 -0 -0 -0 -0 -0 -0 -0 -0 -0 -0 -0 -0 -0 -0 -0 -0 -0 -0 -0 -0 -0 -0 -0 -0 nan -0 -0 -0 -0 -0 -0 -0 -0 -0 -0 -0 -0 -0 -0 -0 -0 -0 -0 -0 -0 -0 -0 -0 -0
nan nan nan nan nan nan nan nan nan nan nan -0 nan nan nan nan nan nan nan nan nan nan nan nan nan nan nan nan nan nan -0 -0 -0 -0 nan nan nan nan nan nan nan nan -0 -0 -0 -0 -0 -0 -0 -0 -0 -0 -0 -0 nan -0 -0 -0 nan nan nan nan nan nan nan -0 -0 -0 -0 -0 -0 -0 -0 -0 -0 -0 -0 -0 -0 -0 -0 -0 -0 -0 -0 -0
nan nan nan -0 -0 nan nan nan nan nan nan nan nan nan nan nan nan nan nan nan nan nan nan nan nan nan nan nan nan nan nan nan nan nan nan nan nan nan nan nan nan nan nan nan nan nan nan nan nan nan nan nan nan nan nan nan nan nan nan nan nan nan nan nan nan nan nan nan nan nan nan -0 -0 -0 -0 -0 -0 -0 -0 -0 -0 -0 -0 -0 -0 -0
nan nan nan -0 -0 nan nan nan nan nan nan nan nan nan nan nan nan nan nan nan nan nan nan nan nan nan nan nan nan nan nan nan nan nan nan nan nan nan nan nan nan nan nan nan nan nan nan nan nan nan nan nan nan nan nan nan nan nan nan nan nan nan nan nan nan nan nan nan nan nan nan nan nan nan nan -0 -0 -0 -0 -0 -0 -0 -0 -0 -0 -0
nan nan nan nan nan nan nan nan nan nan nan nan nan nan nan nan nan nan nan nan nan nan nan nan nan nan nan nan nan nan nan nan nan nan nan nan nan nan nan nan nan nan nan nan nan nan nan nan nan nan nan nan nan nan nan nan nan nan nan nan nan nan nan nan nan nan nan nan nan nan nan nan nan nan nan nan -0 -0 -0 -0 -0 -0 -0 -0 -0 -0
nan nan nan nan nan nan nan nan nan nan nan nan nan nan nan nan nan nan nan nan nan nan nan nan nan nan nan nan nan nan nan nan nan nan nan nan nan nan nan nan nan nan nan nan nan nan nan nan nan nan nan nan nan nan nan nan nan nan nan nan nan nan nan nan nan nan nan nan nan nan nan nan nan nan nan nan nan nan -0 -0 -0 -0 -0 -0 -0 -0
nan nan nan nan nan nan nan nan nan nan nan nan nan nan nan nan nan nan nan nan nan nan nan nan nan nan nan nan nan nan nan nan nan nan nan nan nan nan nan nan nan nan nan nan nan nan nan nan nan nan nan nan nan nan nan nan nan nan nan nan nan nan nan nan nan nan nan nan nan nan nan nan nan nan nan nan -0 -0 -0 -0 -0 -0 -0 -0 -0 -0
nan nan nan nan nan nan nan nan nan nan nan nan nan nan nan nan nan nan nan nan nan nan nan nan nan nan nan nan nan nan nan nan nan nan nan nan nan nan nan nan nan nan nan nan nan nan nan nan nan nan nan nan nan nan nan nan nan nan nan nan nan nan nan nan nan nan nan nan nan nan nan -0 -0 -0 -0 -0 -0 -0 -0 -0 -0 -0 -0 -0 -0 -0
nan nan nan nan nan nan nan nan nan nan nan nan nan nan nan nan nan nan nan nan nan nan nan nan nan nan nan nan nan nan nan nan nan nan nan nan nan nan nan nan nan nan nan nan nan nan nan nan nan nan nan nan nan nan nan nan nan nan nan nan nan nan nan nan nan nan nan nan -0 -0 -0 -0 -0 -0 -0 -0 -0 -0 -0 -0 -0 -0 -0 -0 -0 -0
nan nan nan nan nan nan nan nan nan nan nan nan nan nan nan nan nan nan nan nan nan nan nan nan nan nan nan nan nan nan nan nan nan nan nan nan nan nan nan nan nan nan nan nan nan nan nan nan nan nan nan nan nan nan nan nan nan nan nan nan nan nan nan nan nan nan -0 -0 -0 -0 -0 -0 -0 -0 -0 -0 -0 -0 -0 -0 -0 -0 -0 -0 -0 -0
nan nan nan nan nan nan nan nan nan nan nan nan nan nan nan nan nan nan nan nan nan nan nan nan nan nan nan nan nan nan nan nan nan nan nan nan nan nan nan nan nan nan nan nan nan nan nan nan nan nan nan nan nan nan nan nan nan nan nan nan nan nan nan -0 -0 -0 -0 -0 -0 -0 -0 -0 -0 -0 -0 -0 -0 -0 -0 -0 -0 -0 -0 -0 -0 -0
nan nan nan nan nan nan nan nan nan nan nan nan nan nan nan nan nan nan nan nan nan nan nan nan nan nan nan nan nan nan nan nan nan nan nan nan nan nan nan nan nan nan nan nan nan nan nan nan nan nan nan nan nan nan nan nan nan nan nan nan nan nan nan -0 -0 -0 -0 -0 -0 -0 -0 -0 -0 -0 -0 -0 -0 -0 -0 -0 -0 -0 -0 -0 -0 -0
nan nan nan nan nan nan nan nan nan nan nan nan nan nan nan nan nan nan nan nan nan nan nan nan nan nan nan nan nan nan nan nan nan nan nan nan nan nan nan nan nan nan nan nan nan nan nan nan nan nan nan nan nan nan nan nan nan nan nan nan nan nan nan -0 -0 -0 -0 -0 -0 -0 -0 -0 -0 -0 -0 -0 -0 -0 -0 -0 -0 -0 -0 -0 -0 -0
nan nan nan nan nan nan nan nan nan nan nan nan nan nan nan nan nan nan nan nan nan nan nan nan nan nan nan nan nan nan nan nan nan nan nan nan nan nan nan nan nan nan nan nan nan nan nan nan nan nan nan nan nan nan nan nan nan nan nan nan nan nan nan -0 -0 -0 -0 -0 -0 -0 -0 -0 -0 -0 -0 -0 -0 -0 -0 -0 -0 -0 -0 -0 -0 -0
nan nan nan nan nan nan nan nan nan nan nan nan nan nan nan nan nan nan nan nan nan nan nan nan nan nan nan nan nan nan nan nan nan nan nan nan nan nan nan nan nan nan nan nan nan nan nan nan nan nan nan nan nan nan nan nan nan nan nan nan nan nan nan -0 -0 -0 -0 -0 -0 -0 -0 -0 -0 -0 -0 -0 -0 -0 -0 -0 -0 -0 -0 -0 -0 -0
nan nan nan nan nan nan nan nan nan nan nan nan nan nan nan nan nan nan nan nan nan nan nan nan nan nan nan nan nan nan nan nan nan nan nan nan nan nan nan nan nan nan nan nan nan nan nan nan nan nan nan nan nan nan nan nan nan nan nan nan nan -0 -0 -0 -0 -0 -0 -0 -0 -0 -0 -0 -0 -0 -0 -0 -0 -0 -0 -0 -0 -0 -0 -0 -0 -0
nan nan nan nan nan nan nan nan nan nan nan nan nan nan nan nan nan nan nan nan nan nan nan nan nan nan nan nan nan nan nan nan nan nan nan nan nan nan nan nan nan nan nan nan nan nan nan nan nan nan nan nan nan nan nan nan nan nan -0 -0 -0 -0 -0 -0 -0 -0 -0 -0 -0 -0 -0 -0 -0 -0 -0 -0 -0 -0 -0 -0 -0 -0 -0 -0 -0 -0
nan nan nan nan nan nan nan nan nan nan nan nan nan nan nan nan nan nan nan nan nan nan nan nan nan nan nan nan nan nan nan nan nan nan nan nan nan nan nan nan nan nan nan nan nan nan nan nan nan nan nan nan nan nan nan nan nan -0 -0 -0 -0 -0 -0 -0 -0 -0 -0 -0 -0 -0 -0 -0 -0 -0 -0 -0 -0 -0 -0 -0 -0 -0 -0 -0 -0 -0
nan nan nan nan nan nan nan nan nan nan nan nan nan nan nan nan nan nan nan nan nan nan nan nan nan nan nan nan nan nan nan nan nan nan nan nan nan nan nan nan nan nan nan nan nan nan nan nan nan nan nan nan nan nan nan nan nan -0 -0 -0 -0 -0 -0 -0 -0 -0 -0 -0 -0 -0 -0 -0 -0 -0 -0 -0 -0 -0 -0 -0 -0 -0 -0 -0 -0 -0
nan nan nan nan nan nan nan nan nan nan nan nan nan nan nan nan nan nan nan nan nan nan nan nan nan nan nan nan nan nan nan nan nan nan nan nan nan nan nan nan nan nan nan nan nan nan nan nan nan nan nan nan nan nan nan nan nan -0 -0 -0 -0 -0 -0 -0 -0 -0 -0 -0 -0 -0 -0 -0 -0 -0 -0 -0 -0 -0 -0 -0 -0 -0 -0 -0 -0 -0
nan nan nan nan nan nan nan nan nan nan nan nan nan nan nan nan nan nan nan nan nan nan nan nan nan nan nan nan nan nan nan nan nan nan nan nan nan nan nan nan nan nan nan nan nan nan nan nan nan nan nan nan nan nan nan nan nan nan -0 -0 -0 -0 -0 -0 -0 -0 -0 -0 -0 -0 -0 -0 -0 -0 -0 -0 -0 -0 -0 -0 -0 -0 -0 -0 -0 -0
nan nan nan nan nan nan nan nan nan nan nan nan nan nan nan nan nan nan nan nan nan nan nan nan nan nan nan nan nan nan nan nan nan nan nan nan nan nan nan nan nan nan nan nan nan nan nan nan nan nan nan nan nan nan nan nan nan nan nan nan nan nan -0 -0 -0 -0 -0 -0 -0 -0 -0 -0 -0 -0 -0 -0 -0 -0 -0 -0 -0 -0 -0 -0 -0 -0
nan nan nan nan nan nan nan nan nan nan nan nan nan nan nan nan nan nan nan nan nan nan nan nan nan nan nan nan nan nan nan nan nan nan nan nan nan nan nan nan nan nan nan nan nan nan nan nan nan nan nan nan nan nan nan nan nan nan nan nan nan nan nan -0 -0 -0 -0 -0 -0 -0 -0 -0 -0 -0 -0 -0 -0 -0 -0 -0 -0 -0 -0 -0 -0 -0
nan nan nan nan nan nan nan nan nan nan nan nan nan nan -0 -0 -0 -0 nan nan nan nan nan nan nan nan nan nan nan nan nan nan nan nan nan nan nan nan nan nan nan nan nan nan nan nan nan nan nan nan nan nan nan nan nan nan nan nan nan nan nan nan nan -0 -0 -0 -0 -0 -0 -0 -0 -0 -0 -0 -0 -0 -0 -0 -0 -0 -0 -0 -0 -0 -0 -0
nan nan nan nan nan nan nan nan -0 -0 nan -0 nan nan nan nan nan nan nan nan nan nan nan nan nan nan nan nan nan nan nan nan nan nan nan nan nan nan nan nan nan nan nan nan nan nan nan nan nan nan nan nan nan nan nan nan nan nan nan nan nan nan nan nan nan -0 -0 -0 -0 -0 -0 -0 -0 -0 -0 -0 -0 -0 -0 -0 -0 -0 -0 -0 -0 -0
nan nan nan nan nan nan nan nan nan nan nan -0 -0 -0 -0 nan nan nan nan nan nan nan nan nan nan nan nan nan nan nan nan nan nan nan nan nan nan nan nan nan nan nan nan nan nan nan nan nan nan nan nan nan nan nan nan nan nan nan nan nan nan nan nan nan nan nan nan -0 -0 -0 -0 -0 -0 -0 -0 -0 -0 -0 -0 -0 -0 -0 -0 -0 -0 -1
-0 -0 -0 nan nan nan -1 -0 -0 -0 -0 -0 -0 -0 nan nan nan nan nan nan nan nan nan nan nan nan nan nan nan nan nan nan nan nan nan nan nan nan nan nan nan nan nan nan nan nan nan nan nan nan nan nan nan nan nan nan nan nan nan nan nan nan nan nan nan nan nan -0 -0 -0 -0 -0 -0 -0 -0 -0 -0 -0 -0 -0 -0 -0 -0 -0 -0 nan
nan nan nan -0 -0 -0 -0 -0 nan nan -0 -0 -0 -0 -0 nan nan nan nan nan nan nan nan nan nan nan nan nan nan nan nan nan nan nan nan nan nan nan nan nan nan nan nan nan nan nan nan nan nan nan nan nan nan nan nan nan nan nan nan nan nan nan nan nan nan nan nan -0 -0 -0 -0 -0 -0 -0 -0 -0 -0 -0 -0 -0 -0 -0 -0 -2 -2 -4
nan nan nan nan nan nan nan nan nan nan nan -0 -0 -0 nan nan nan nan nan nan nan nan nan nan nan nan nan nan nan nan nan nan nan nan nan nan nan nan nan nan nan nan nan nan nan nan nan nan nan nan nan nan nan nan nan nan nan nan nan nan nan nan nan nan nan nan -0 -0 -0 -0 -0 -0 -0 -0 -0 -0 -0 -0 -0 -0 -0 -0 -1 nan nan -5
nan nan nan nan nan nan nan nan nan nan nan nan nan nan nan nan nan nan nan nan nan nan nan nan nan nan nan -5 nan nan nan nan nan nan nan nan nan nan nan nan nan nan nan nan nan nan nan nan nan nan nan nan nan nan nan nan nan nan nan nan nan nan nan nan nan nan nan nan -0 -0 -0 -0 -0 -0 -0 -0 -0 -0 -0 -0 -0 -0 -9 nan nan -5
nan nan nan nan nan nan nan nan nan nan nan nan nan nan nan nan nan nan nan nan nan nan nan nan nan nan nan nan -9 -9 nan nan nan nan nan nan nan nan nan nan nan nan nan nan nan nan nan nan nan nan nan nan nan nan nan nan nan nan nan nan nan nan nan nan nan nan nan nan nan nan -0 -0 -0 -0 -0 -0 -0 -0 -0 -0 -0 -0 -0 -5 -5 -3
nan nan nan nan nan nan nan nan nan nan nan nan nan nan nan nan nan nan nan nan nan nan nan nan nan nan nan nan nan nan nan nan -21 -21 -14 nan nan nan nan nan nan nan nan nan nan nan nan nan nan nan nan nan nan nan nan nan nan nan nan nan nan nan nan nan nan nan nan nan nan nan nan nan nan nan nan -0 -0 -0 -0 -0 -0 -0 -0 -0 -0 -0
nan nan nan nan nan nan nan nan nan nan nan nan nan nan nan nan nan nan nan nan nan nan nan nan nan nan nan nan nan nan nan nan nan nan -13 nan nan nan nan nan nan nan nan nan nan nan nan nan nan nan nan nan nan nan nan nan nan nan nan nan nan nan nan nan nan nan nan nan nan nan nan nan nan nan nan nan -0 -0 -0 -0 -0 -0 -0 -0 -0 -0
nan nan nan nan nan nan nan nan nan nan nan nan nan nan nan nan nan nan nan nan nan nan nan nan nan nan nan nan nan nan nan nan nan nan -19 nan nan nan nan nan nan nan nan nan nan nan nan nan nan nan nan nan nan nan nan nan nan nan nan nan nan nan nan nan nan nan nan nan nan nan nan nan nan nan nan -0 -0 -0 -0 -0 -0 -0 -0 -0 -0 -0
nan nan nan nan nan nan nan nan nan nan nan nan nan nan nan nan nan nan nan nan nan nan nan nan nan nan nan nan nan nan nan nan nan nan -28 nan nan nan nan -13 -13 -14 nan nan nan nan nan nan nan nan nan nan nan nan nan nan nan nan nan nan nan nan nan nan nan nan nan nan nan nan nan nan nan nan nan -0 nan nan -0 -0 -0 -0 -0 -0 -0 -0
nan nan nan nan nan nan nan nan nan nan nan nan nan nan nan nan nan nan nan nan nan nan nan nan nan nan nan -12 nan nan nan nan nan nan nan nan nan nan nan -12 -12 -11 nan nan nan nan -6 nan nan nan nan nan nan nan nan nan nan nan nan nan nan nan nan nan nan nan nan nan nan nan nan nan nan nan nan nan nan nan nan nan nan nan -0 -0 -0 -0
nan nan nan nan nan nan nan nan nan nan nan nan nan nan nan nan nan nan nan nan nan nan nan nan nan nan nan nan nan nan nan nan nan nan nan nan nan nan nan -11 -11 -13 nan nan nan nan nan nan nan nan nan nan nan nan nan nan nan nan nan nan nan nan nan nan nan nan nan nan nan nan nan nan nan nan nan nan nan nan nan nan nan nan nan nan nan nan
nan nan nan nan nan nan nan nan nan nan nan nan nan nan nan nan nan nan nan nan nan nan nan nan nan nan nan nan nan nan nan nan nan nan nan nan nan nan nan nan nan nan nan nan nan nan nan nan nan nan nan nan nan nan nan nan nan nan nan nan nan nan nan nan nan nan nan nan nan nan nan nan nan nan nan nan nan nan nan nan nan nan nan nan nan nan
nan nan nan nan nan nan nan nan nan nan nan nan nan nan nan nan nan nan nan nan nan nan nan nan nan nan nan nan nan nan nan nan nan nan nan nan nan nan nan nan nan nan nan nan nan nan nan nan nan -5 nan nan nan nan nan nan nan nan -0 nan nan nan nan nan nan nan nan nan nan nan nan nan nan nan nan nan nan nan nan nan nan nan nan nan nan nan
-0 -11 nan nan nan nan nan nan nan nan nan nan nan nan nan nan nan nan nan nan nan nan nan nan nan nan nan nan nan nan nan nan nan nan nan nan nan nan nan nan nan nan nan nan nan nan -10 -7 -7 -6 -8 nan nan nan nan nan nan nan nan nan nan nan nan nan nan nan nan nan nan nan nan nan nan nan nan nan nan nan nan nan nan nan nan nan nan nan
nan nan nan nan nan nan nan nan nan nan nan nan nan nan nan nan nan nan nan nan nan nan nan nan nan nan nan nan nan nan nan nan nan nan nan nan nan nan nan nan nan nan nan nan nan nan nan -6 -6 -9 -10 nan nan nan nan nan nan nan nan nan nan nan nan nan nan nan nan nan nan nan nan nan nan nan nan nan nan nan nan nan nan nan nan nan nan nan
nan nan nan nan nan nan nan nan nan nan nan nan nan nan nan nan nan nan nan nan nan nan nan nan nan nan nan nan nan nan nan nan nan nan nan nan nan nan nan nan nan nan nan nan nan nan nan -8 -8 nan nan nan nan nan nan nan nan nan nan nan nan nan nan nan nan nan nan nan nan nan nan nan nan nan nan nan nan nan nan nan nan nan nan nan nan nan
nan nan nan nan nan nan nan nan nan nan nan nan nan nan nan nan -28 -28 nan nan nan nan nan nan nan nan nan nan nan nan nan nan nan nan nan nan -23 -23 nan nan nan nan nan nan nan nan nan -9 -9 nan nan -15 nan nan nan nan nan nan nan nan nan nan nan nan nan nan nan nan nan nan nan nan nan nan nan nan nan nan nan nan nan nan nan nan nan nan
nan nan nan nan nan nan nan nan nan nan nan nan nan nan nan nan nan nan nan nan nan nan nan nan nan nan nan nan nan nan nan nan nan nan nan nan nan nan nan nan nan nan nan nan nan nan nan nan nan nan -12 -9 -8 -8 nan nan nan nan nan nan nan nan nan nan nan nan nan nan nan nan nan nan nan nan nan nan nan nan nan nan nan nan nan nan nan nan
nan nan nan nan nan nan nan nan nan nan nan nan nan nan nan nan nan nan nan nan nan nan nan nan nan nan nan nan nan nan nan nan nan nan nan nan nan nan nan nan nan nan nan nan nan nan nan nan nan -17 -8 nan nan nan nan nan nan nan nan nan nan nan nan nan nan nan nan nan nan nan nan nan nan nan nan nan nan nan nan nan nan nan nan nan nan nan
nan nan nan nan nan nan nan nan nan nan nan nan nan nan nan nan nan nan nan nan nan nan -16 nan nan nan nan nan nan nan nan nan nan nan nan nan nan nan nan nan nan nan nan -28 -28 -20 nan nan nan -23 -11 nan nan nan nan nan nan nan nan nan nan nan nan nan nan nan nan nan nan nan nan nan nan nan nan nan nan nan nan nan nan nan nan nan nan nan
nan nan nan nan nan nan nan nan nan nan nan nan nan nan nan nan -4 -4 nan nan nan nan nan nan nan nan nan nan nan nan nan -9 -11 -11 nan nan nan nan nan nan nan nan nan nan nan nan nan nan nan nan nan nan nan nan nan nan nan nan nan nan nan nan nan nan nan nan nan nan nan nan nan nan nan nan nan nan nan nan nan nan nan nan nan nan nan nan
nan nan nan nan nan nan nan nan nan nan nan nan nan nan nan nan nan nan nan nan nan nan nan nan nan nan nan nan nan nan nan -12 -14 -14 nan nan -20 -20 nan nan nan -22 -19 nan nan nan nan nan nan nan nan nan nan nan nan nan nan nan nan nan nan nan nan nan nan nan nan nan nan nan nan nan nan nan nan nan nan nan nan nan nan nan nan nan nan nan
nan nan nan nan nan nan nan -18 -14 -14 -16 -15 -13 -13 nan nan nan nan nan nan nan nan nan nan nan nan nan nan nan nan -12 -11 -12 -12 -11 nan -17 -17 nan -22 -22 -17 -8 nan nan nan nan nan nan nan nan -4 nan nan nan nan nan nan nan nan nan nan nan nan nan nan nan nan nan nan nan nan nan nan nan nan nan nan nan nan nan nan nan nan nan nan
Wind_Speed
1 1 1 1 1 1 1 0 1 1 1 1 1 1 1 1 1 1 1 1 1 1 2 2 2 3 4 5 6 7 7 6 6 6 6 6 6 6 6 6 6 6 6 6 5 5 6 6 6 6 6 6 6 5 5 5 5 5 5 5 5 5 6 6 6 6 6 7 7 7 7 7 7 6 6 6 6 6 6 6 6 7 7 8 9 10
1 1 1 0 0 1 1 0 0 0 1 1 1 1 2 2 1 1 1 1 1 1 1 1 2 2 3 4 5 6 6 6 6 6 6 6 6 6 6 7 7 7 6 6 6 6 6 6 6 5 5 5 4 4 4 4 4 4 4 4 5 5 5 5 6 6 6 7 7 7 7 7 7 7 7 8 8 8 8 8 8 8 9 10 11 11
1 1 1 0 0 1 1 1 1 1 1 1 2 2 2 2 2 1 1 2 2 1 1 1 1 2 3 4 5 6 6 6 6 6 6 6 6 6 6 6 6 6 6 6 6 6 5 5 5 4 4 4 4 4 4 4 4 4 4 4 4 4 5 5 5 5 6 6 6 7 7 7 8 8 8 9 9 9 9 9 10 10 11 11 12 13
1 1 1 1 1 1 1 1 1 1 1 2 2 2 1 1 1 1 1 2 2 2 2 1 2 2 2 3 5 6 6 6 6 6 6 6 6 6 6 6 5 5 5 5 5 4 4 4 4 4 4 4 4 4 5 5 5 5 5 5 5 5 5 5 5 5 6 6 6 7 7 7 8 8 9 9 9 10 10 10 11 11 11 12 13 14
1 1 1 1 1 1 1 1 1 1 1 1 1 1 1 1 1 1 1 2 2 2 2 2 2 2 2 3 4 6 7 7 7 7 7 7 6 6 6 6 5 5 5 5 4 4 4 4 4 5 5 5 6 6 6 6 7 7 7 7 6 6 6 6 6 6 6 6 7 7 7 8 8 9 9 10 10 10 11 11 11 11 12 13 13 14
1 1 0 1 0 0 1 1 1 1 1 1 1 1 1 1 1 1 2 2 2 2 2 2 2 2 3 3 5 7 8 8 8 8 8 8 7 7 7 6 6 6 6 6 5 5 6 6 6 6 7 7 7 7 7 8 8 8 8 8 7 7 7 7 7 7 7 7 7 8 8 8 9 9 9 10 10 11 11 11 12 12 12 13 13 14
1 1 1 1 1 1 1 1 2 2 1 1 2 2 2 1 1 1 1 2 2 2 2 2 2 2 3 4 6 7 7 8 8 9 9 9 9 8 8 8 7 7 7 7 7 7 7 7 8 8 8 8 8 8 8 8 8 8 8 8 8 8 8 8 8 8 8 8 8 8 9 9 9 9 10 10 10 11 11 11 12 12 12 13 13 14
1 2 2 2 2 2 1 1 2 2 1 1 1 2 2 2 2 2 1 2 2 2 3 3 3 3 3 4 5 6 5 5 6 6 7 8 8 9 9 9 9 8 8 8 8 8 8 8 9 9 9 9 9 9 9 9 9 9 9 9 9 9 9 9 9 9 9 9 9 9 9 9 9 10 10 10 10 11 11 11 12 12 12 13 13 14
1 2 2 2 2 1 1 2 2 1 1 1 1 1 2 2 2 2 2 2 2 2 2 3 3 3 3 4 4 5 5 5 4 4 5 5 6 7 8 8 8 9 9 9 9 9 9 9 9 9 9 9 9 10 9 9 9 9 9 9 9 9 9 9 9 9 9 9 9 9 9 10 10 10 10 10 10 10 11 11 12 12 12 13 13 14
1 1 1 1 1 1 0 1 2 2 1 0 1 1 1 1 2 2 3 3 2 2 2 3 3 3 3 4 4 4 5 5 5 6 6 6 7 7 7 7 7 8 9 9 9 9 10 10 10 10 10 10 10 10 10 10 10 10 10 9 9 9 9 9 9 9 9 9 10 10 10 10 10 10 10 10 10 10 11 11 11 12 12 13 13 14
1 1 1 1 1 0 0 1 2 2 1 1 1 1 1 1 1 1 2 2 3 2 2 2 3 3 3 3 4 4 4 4 5 5 6 7 8 8 7 7 7 7 9 9 9 10 10 10 10 10 10 10 11 10 10 10 10 10 10 10 10 10 10 10 10 10 10 10 10 10 10 10 10 10 10 10 11 11 11 11 11 11 12 12 13 13
0 0 0 1 1 1 1 1 1 1 1 2 1 1 1 1 1 1 1 1 2 2 2 2 2 2 2 2 3 3 3 3 3 4 4 5 5 5 5 5 6 6 7 7 8 9 10 10 11 11 11 11 11 11 11 10 10 10 10 10 10 10 10 10 10 10 10 10 10 10 11 11 11 11 11 11 11 11 11 11 11 11 12 12 13 13
0 1 1 1 1 1 1 2 1 1 1 1 0 1 1 0 1 1 1 1 1 1 2 2 2 2 1 1 2 3 3 3 3 3 3 3 3 3 3 3 4 4 4 4 5 6 8 9 10 10 11 11 11 11 11 11 11 11 11 11 11 11 11 11 11 11 11 11 11 11 11 11 11 11 12 12 12 12 12 12 12 12 12 13 13 14
1 1 1 1 1 1 1 1 0 1 1 1 1 1 1 0 1 1 1 0 1 1 1 1 2 2 2 2 2 2 2 3 3 3 3 3 3 2 2 3 3 3 3 3 3 4 6 7 7 7 10 10 10 11 11 11 12 12 12 12 12 12 12 12 11 11 11 11 12 12 12 12 12 12 12 12 12 12 12 12 12 13 13 13 14 14
0 1 1 0 1 1 1 1 1 2 2 1 1 0 0 1 1 1 1 1 1 2 1 1 2 2 2 2 2 2 2 3 3 3 4 3 2 2 2 2 3 3 2 3 3 4 5 5 4 5 6 8 9 10 11 11 12 13 12 12 12 12 12 12 12 12 12 12 12 12 12 12 12 13 13 13 13 13 13 13 13 13 14 14 14 14
1 1 1 1 1 1 2 1 2 2 1 1 0 0 1 1 1 1 1 0 1 2 2 2 2 2 3 2 1 2 2 3 3 3 4 4 3 2 2 2 3 3 3 3 3 3 4 4 4 4 5 8 10 12 13 13 13 13 13 13 13 12 12 12 12 12 12 12 12 12 12 12 13 13 13 13 13 13 13 13 14 14 14 14 14 15
1 2 2 1 2 2 2 1 1 1 1 0 0 0 1 1 1 1 1 1 1 1 2 1 1 2 2 2 2 2 3 3 3 3 3 3 3 2 2 2 2 3 3 3 3 3 3 3 3 4 5 8 11 13 13 13 13 13 13 13 13 12 12 12 12 12 12 12 12 12 12 12 12 13 13 13 13 13 13 14 14 14 14 14 15 15
2 2 2 2 2 2 1 1 1 1 1 1 1 0 1 0 1 1 1 1 1 1 1 1 1 1 1 2 2 1 2 2 2 3 3 3 3 2 2 1 1 1 2 3 3 2 2 3 3 4 6 11 13 13 14 13 13 13 12 12 12 12 12 11 11 11 11 11 11 11 12 12 12 12 12 13 13 13 13 13 14 14 14 14 15 15
2 2 2 2 2 2 1 2 2 2 2 2 2 2 1 0 0 1 1 1 2 2 2 2 1 2 2 2 2 2 0 0 1 2 2 3 2 2 2 2 1 1 2 3 3 3 2 3 4 7 10 12 13 13 13 13 12 12 11 11 11 11 10 10 10 10 10 10 10 11 11 11 11 12 12 12 13 13 13 13 13 14 14 14 14 15
2 3 3 2 2 1 2 3 3 3 3 3 3 3 2 1 1 1 1 1 1 1 2 2 2 2 2 3 2 2 0 0 1 1 1 2 2 2 2 2 2 2 2 3 3 3 3 3 4 6 10 11 12 12 12 11 11 10 10 10 9 9 9 9 9 9 9 10 10 10 11 11 12 12 12 13 13 13 14 14 14 14 14 15 15 15
2 3 4 3 3 2 2 3 3 4 4 4 3 3 2 2 1 1 1 1 1 1 1 1 2 3 2 3 2 2 1 1 1 1 1 2 2 2 1 1 1 2 3 3 3 3 3 3 4 5 7 10 11 11 11 10 10 9 9 8 8 8 8 8 9 9 10 10 11 11 12 12 13 13 13 14 14 14 14 15 15 15 15 15 16 16
2 2 3 4 3 3 3 3 3 4 5 5 4 3 2 2 2 1 1 1 1 2 2 2 3 3 2 2 2 2 1 0 1 1 0 1 2 2 1 1 1 2 3 3 3 3 3 3 3 5 7 10 10 10 10 9 8 8 8 8 8 8 9 9 10 10 11 12 12 13 13 14 14 14 14 14 14 14 15 15 15 15 15 16 16 16
3 3 3 4 4 3 2 2 3 3 4 4 4 3 3 3 3 3 3 3 2 2 2 2 2 1 1 2 2 1 1 0 1 2 1 0 2 3 2 1 1 2 3 3 3 3 3 4 4 5 7 9 10 9 9 8 7 7 8 8 9 9 10 11 12 12 13 13 14 14 14 14 14 14 14 14 14 15 15 15 15 15 16 16 16 16
3 3 3 3 3 3 2 2 2 2 2 2 2 2 2 2 2 2 2 2 2 1 1 0 1 1 2 2 2 2 1 0 1 1 1 1 2 2 2 1 2 3 4 3 3 3 4 4 4 4 5 7 8 8 7 7 7 8 8 9 10 11 12 13 14 14 14 14 14 14 14 14 14 14 14 14 14 15 15 15 15 15 16 16 16 16
3 3 3 3 4 4 3 3 3 4 3 3 3 3 3 3 3 3 2 2 2 2 1 2 2 2 2 3 3 2 1 0 1 1 1 0 2 2 2 1 2 3 4 4 3 3 3 4 4 3 3 4 5 7 7 7 8 9 10 11 12 13 14 14 15 15 15 15 15 14 14 14 14 14 14 14 15 15 15 15 15 16 16 16 16 17
3 3 3 4 5 5 5 6 6 6 6 5 4 3 4 4 3 3 2 2 1 1 2 2 2 2 2 2 2 2 2 1 0 1 2 1 1 2 2 1 1 2 4 4 3 3 3 4 4 3 2 2 4 6 7 8 9 11 12 13 14 15 15 15 15 15 15 15 14 14 14 14 14 15 15 15 15 15 15 16 16 16 16 16 16 16
4 4 5 6 6 6 6 7 8 9 9 8 7 6 5 4 3 2 1 0 1 2 2 2 1 2 2 2 2 2 2 1 0 1 2 1 0 2 3 2 1 2 4 4 4 3 4 4 3 2 1 2 3 4 7 8 10 12 13 14 15 15 15 15 15 15 14 14 14 15 15 15 15 15 15 15 16 16 16 16 16 16 16 15 14 13
5 5 5 5 4 4 3 5 6 8 10 10 10 9 6 4 2 1 1 1 1 2 2 1 1 1 2 2 2 2 2 1 1 1 2 2 1 2 3 2 2 2 4 4 4 4 4 3 2 2 2 2 3 4 6 8 10 11 13 14 15 15 15 14 14 14 14 14 15 15 15 15 16 16 16 16 16 16 16 16 16 16 15 12 9 7
4 5 5 5 5 4 2 1 1 3 6 9 11 10 6 4 2 2 2 2 2 2 2 1 1 1 2 2 2 2 2 2 1 1 2 1 1 2 2 2 2 2 3 4 4 3 2 2 1 1 2 3 3 3 4 6 7 9 10 12 13 13 13 14 14 14 14 15 15 15 16 16 16 16 16 16 16 16 16 16 16 14 11 9 7 5
4 4 5 5 5 5 4 3 3 2 1 4 7 8 6 3 3 3 3 3 3 2 2 2 2 1 2 2 2 2 2 2 1 2 2 1 1 2 2 2 2 2 2 4 4 3 2 2 2 2 2 2 2 2 3 3 4 5 6 8 9 10 11 12 13 14 14 15 15 15 16 16 16 16 16 16 16 16 16 17 15 12 8 6 6 6
2 2 2 2 3 3 3 2 2 3 3 3 2 3 3 3 3 3 3 3 3 3 2 2 2 2 1 1 1 1 2 2 2 2 2 1 1 2 2 2 2 2 1 2 3 3 4 3 2 2 2 2 2 2 2 3 3 3 3 4 5 6 9 11 12 13 13 14 15 15 16 16 16 16 16 16 16 16 17 17 15 11 7 6 6 6
1 1 1 1 2 2 2 2 2 2 2 2 1 1 2 2 3 3 3 3 3 3 3 2 2 2 2 2 2 2 2 2 2 3 3 2 1 2 1 2 2 2 1 1 1 2 3 3 3 2 2 2 3 3 3 3 3 3 3 3 3 4 7 9 10 11 11 13 14 15 15 15 16 16 16 16 16 16 16 16 15 11 7 6 6 6
1 1 0 1 1 2 2 2 2 1 1 1 0 1 1 2 3 3 3 3 3 3 3 3 2 2 2 2 2 2 2 2 3 5 5 2 2 2 1 2 2 2 2 1 1 2 3 3 4 4 4 3 3 2 2 3 3 3 2 2 2 3 6 7 7 8 9 10 11 11 13 14 14 15 15 16 16 16 16 16 15 13 9 7 7 7
2 1 1 1 1 2 2 2 1 1 1 1 1 1 1 2 2 3 3 3 3 3 3 3 3 2 2 2 2 3 2 3 3 4 5 3 2 2 2 2 2 2 3 2 2 2 3 4 4 5 5 4 3 2 2 3 3 2 1 2 2 3 4 5 5 6 7 7 7 7 8 9 10 12 13 14 14 15 15 15 15 15 14 10 9 8
2 1 1 1 1 1 2 2 1 1 1 1 1 1 1 2 2 2 3 3 3 3 3 3 3 3 3 3 3 2 2 3 3 4 3 2 2 2 2 2 2 2 3 3 3 3 3 4 5 6 6 5 4 3 2 2 2 2 2 2 3 3 4 4 4 5 6 5 5 5 5 5 6 7 9 11 12 14 15 16 16 16 16 15 13 10
2 1 1 1 1 1 2 2 1 1 1 1 1 1 1 2 2 2 3 3 3 3 4 3 3 3 3 3 3 3 3 3 3 3 3 2 1 2 2 2 2 2 2 3 3 3 4 5 5 6 7 6 5 4 2 2 2 2 2 3 3 4 4 4 4 4 4 4 4 4 4 4 5 5 6 10 12 14 15 16 17 17 17 17 16 14
3 2 2 2 2 2 2 2 2 2 2 2 2 2 2 2 2 3 3 3 3 3 4 4 4 4 4 3 3 3 3 3 3 3 3 2 2 2 2 2 2 2 2 3 3 4 4 5 6 6 5 5 4 4 4 3 3 3 3 3 4 4 5 5 5 4 4 4 5 5 5 4 5 5 6 10 12 13 14 15 16 16 17 17 17 17
3 3 3 3 3 2 2 2 2 2 2 2 2 2 3 3 2 2 2 3 3 3 3 3 3 4 5 5 5 4 4 3 3 4 4 3 2 2 3 3 3 2 2 2 3 3 4 5 6 6 5 5 5 5 5 5 5 5 4 4 4 4 4 4 4 3 3 4 5 6 6 6 5 5 5 7 7 7 8 8 10 12 14 14 15 17
4 4 4 3 3 3 2 2 2 2 3 3 3 3 2 2 2 2 2 2 2 3 3 3 3 3 4 4 5 5 5 4 4 4 4 3 3 3 3 3 3 3 3 3 3 3 4 5 5 5 6 6 6 6 5 5 5 5 6 6 5 4 3 3 3 3 3 4 5 6 6 5 4 4 5 5 5 5 5 6 7 8 8 8 10 13
4 4 4 4 3 3 3 3 3 3 3 3 3 2 2 1 1 1 1 2 2 2 3 3 3 3 3 4 4 5 5 4 4 4 3 3 3 3 3 3 3 3 3 3 3 3 4 5 5 6 7 6 7 7 6 5 5 6 8 6 5 4 3 3 3 4 3 3 4 4 4 4 4 5 5 5 5 5 5 5 6 7 7 6 6 7
4 3 3 3 3 3 3 3 3 2 2 2 2 2 1 1 1 1 1 1 1 2 2 2 2 2 3 3 3 4 5 5 5 4 3 4 4 4 4 4 3 3 3 3 4 4 4 5 6 6 6 7 7 8 9 8 8 9 9 7 7 6 6 6 5 4 3 3 2 3 4 5 6 6 6 6 6 5 5 6 6 7 8 6 5 5
4 3 2 2 2 2 3 2 2 2 2 2 2 2 2 2 1 1 1 1 1 1 1 1 1 2 2 3 3 3 4 4 4 5 5 6 6 5 4 4 4 3 3 4 4 4 5 5 6 6 6 6 7 7 8 8 8 8 7 8 8 9 8 6 4 2 1 2 3 4 5 6 6 6 7 7 6 6 7 7 8 9 9 7 5 5
3 2 2 2 2 2 2 2 2 2 2 2 2 2 2 2 2 2 2 2 2 2 2 2 2 2 2 3 3 3 3 3 4 5 5 5 5 5 5 5 4 4 3 3 4 5 5 6 6 6 6 5 6 7 9 9 8 7 6 7 7 7 6 5 3 2 2 4 4 5 5 5 6 6 7 7 7 6 7 8 10 11 10 8 6 6
3 2 2 2 2 2 2 2 2 2 2 2 2 2 2 3 3 3 2 2 2 2 2 2 2 2 2 3 3 2 2 2 3 3 4 5 5 5 5 5 5 5 4 4 4 4 4 5 5 5 5 5 6 7 9 9 9 8 6 6 6 6 6 6 5 5 5 5 5 5 5 5 6 6 6 7 7 7 6 7 7 8 8 8 7 7
3 3 3 3 2 2 2 3 3 2 3 3 2 2 2 3 3 3 3 2 2 2 2 2 2 2 2 2 2 2 2 2 2 2 3 4 6 6 6 5 5 5 5 4 4 4 4 5 5 5 5 5 6 8 9 9 9 9 8 7 7 7 7 7 6 6 6 6 6 5 5 5 5 6 7 7 7 7 7 7 7 7 7 6 6 7
2 2 2 2 2 2 3 3 3 2 2 2 2 3 3 3 3 3 3 3 3 3 2 2 2 2 2 2 2 2 2 2 2 2 2 3 3 3 4 4 4 4 4 4 5 5 5 5 5 6 5 6 7 8 8 8 9 9 8 7 7 7 7 6 6 5 6 6 6 6 6 5 5 6 7 8 8 8 7 7 7 7 7 7 7 7
2 2 2 2 2 2 2 2 2 2 2 3 3 3 3 3 3 3 3 3 3 2 2 2 2 2 2 2 2 2 3 3 3 3 3 2 2 2 3 3 3 4 4 4 4 5 5 5 5 5 6 7 8 8 8 7 7 7 7 6 7 7 7 6 5 5 5 5 5 6 5 5 5 6 8 9 9 8 7 7 6 7 7 7 7 7
3 2 2 2 2 2 2 2 3 3 3 3 3 3 3 3 3 3 2 2 2 2 2 1 1 1 2 2 2 3 3 4 4 4 3 3 2 2 2 2 2 3 3 4 4 5 5 6 6 6 6 7 8 8 8 6 6 6 6 6 6 7 8 7 6 5 5 5 5 5 4 4 5 7 9 10 10 9 8 7 7 6 6 6 6 7
3 3 3 3 3 3 3 3 3 3 4 3 3 3 3 3 4 4 2 2 2 2 1 1 1 1 2 2 2 3 3 4 4 3 3 3 3 3 2 2 2 3 3 4 4 4 5 6 6 7 7 7 7 8 8 7 6 5 5 5 6 6 7 7 6 5 5 5 5 5 4 4 5 6 8 10 11 11 10 9 8 6 5 5 6 6
4 4 4 4 4 4 4 4 4 4 4 3 3 3 2 2 2 2 2 2 2 2 2 2 1 1 2 2 3 3 3 3 3 3 3 3 2 3 3 3 3 3 4 4 3 3 4 4 5 6 7 8 8 7 7 7 6 5 5 5 5 5 6 6 6 5 5 6 6 6 5 5 6 6 7 9 11 12 12 11 9 7 6 5 5 6
4 4 4 4 4 4 4 4 4 4 3 3 3 2 2 2 2 1 2 2 2 2 2 2 1 1 2 3 3 3 3 3 3 3 3 3 3 3 3 3 3 4 4 4 4 4 3 3 3 4 5 8 9 8 5 5 5 5 5 4 4 4 4 5 5 5 6 6 6 6 7 7 7 6 6 8 9 11 12 11 10 9 6 5 5 7
Wind_Direction
243 243 252 256 245 235 234 276 306 296 271 268 279 289 296 300 292 299 357 19 17 8 3 355 351 352 354 359 360 359 358 359 2 5 8 11 13 14 15 16 15 14 14 16 20 26 33 37 38 37 33 27 22 16 10 6 3 0 357 354 351 347 344 342 340 338 336 335 334 333 334 334 330 326 319 311 305 299 293 288 284 281 278 275 273 270
241 236 238 259 246 229 231 238 273 290 280 287 295 301 303 293 285 285 319 351 359 359 357 347 345 345 347 350 353 356 356 358 360 2 5 8 9 11 12 12 12 12 12 13 16 20 25 28 28 28 25 20 14 7 1 356 352 348 345 343 340 337 335 332 330 328 327 324 322 321 319 316 311 306 300 296 291 287 283 280 277 275 273 271 269 268
220 220 215 187 175 202 227 240 251 256 258 279 291 300 301 294 292 296 314 328 333 334 332 329 335 339 340 342 347 352 354 358 1 4 6 8 9 10 11 12 12 12 12 14 15 18 20 20 19 17 13 8 2 357 350 347 342 339 337 335 331 328 327 324 322 320 318 316 313 310 307 304 299 295 293 289 286 283 280 277 275 273 271 270 268 268
205 213 206 174 181 214 223 243 259 262 257 271 282 290 291 290 294 299 309 323 329 331 327 333 343 345 344 341 344 348 354 360 4 7 8 9 10 10 11 11 11 12 13 13 14 14 14 12 9 6 1 359 356 353 350 347 344 341 338 336 333 329 326 323 320 317 314 312 309 306 303 300 297 294 293 290 288 285 282 280 277 275 274 272 271 270
216 211 188 157 185 239 246 272 283 283 278 282 288 297 304 304 307 312 327 342 343 340 336 347 358 2 359 348 347 351 357 3 7 10 11 11 11 10 10 10 10 10 10 10 9 8 7 5 3 1 359 358 356 354 351 349 346 344 341 339 335 332 328 324 321 318 316 312 309 306 304 301 299 298 296 294 292 289 287 284 282 280 278 277 276 275
237 228 126 128 143 276 359 359 346 336 322 319 319 324 331 334 337 341 347 352 350 345 341 350 3 10 8 1 358 359 1 6 11 14 16 15 14 13 11 11 10 9 8 7 6 5 3 2 0 359 357 356 353 351 348 346 344 342 339 336 333 330 326 322 319 316 314 311 308 305 303 301 300 298 297 295 294 292 290 288 286 284 282 281 280 278
282 334 26 43 40 24 19 13 8 8 4 344 339 337 337 343 351 355 349 351 349 346 340 345 355 8 12 7 3 2 2 7 12 17 19 19 18 16 15 14 12 10 8 6 4 2 360 358 356 354 352 350 348 346 344 342 341 339 336 333 330 326 322 319 316 313 311 308 306 304 301 300 298 297 296 294 293 291 290 288 287 286 284 283 282 281
329 354 14 20 17 7 4 4 10 16 24 16 357 344 339 341 343 346 341 354 3 1 354 351 353 359 3 1 1 360 359 5 11 17 20 19 18 17 16 15 12 9 6 3 1 358 356 353 351 349 348 346 345 343 341 341 339 336 334 330 327 323 320 317 314 311 309 307 304 302 300 298 296 295 293 292 291 290 289 288 287 286 285 284 283 282
356 354 1 17 20 14 354 341 345 360 20 51 54 15 346 341 339 341 348 356 7 14 15 10 1 352 347 351 354 355 357 4 10 15 19 16 14 14 14 12 9 6 3 1 358 356 353 351 349 348 347 346 345 343 342 341 339 336 333 329 325 322 319 316 314 311 308 306 304 301 299 297 295 293 292 291 289 289 288 287 286 286 285 285 284 284
26 359 345 357 23 49 358 303 309 322 342 45 105 114 101 29 358 351 352 345 348 3 27 28 16 359 343 345 349 353 356 1 7 11 14 9 9 10 9 6 2 360 358 358 357 356 354 353 352 350 350 349 347 346 344 342 340 336 333 329 326 323 319 317 314 311 309 306 304 301 299 297 295 294 292 291 290 288 288 287 286 286 286 286 285 285
9 354 335 326 329 330 220 256 275 296 329 19 49 60 76 81 70 43 5 334 330 339 6 24 25 14 356 346 345 347 351 354 356 358 0 0 2 3 0 357 354 353 355 356 356 357 357 357 357 355 354 352 350 347 344 342 339 335 332 329 326 323 320 318 315 313 310 308 305 303 301 300 298 296 295 293 291 289 288 287 286 285 285 285 285 284
338 338 329 321 324 326 308 288 293 317 9 34 26 6 355 31 81 106 119 292 309 323 337 350 4 12 8 350 341 340 346 347 344 340 341 348 352 354 353 349 348 349 352 353 355 356 358 360 359 358 355 352 349 346 343 340 337 334 331 328 326 324 321 319 317 315 312 310 308 307 305 304 302 300 298 295 293 290 288 287 285 284 283 283 282 282
13 9 354 345 339 331 326 330 339 355 23 56 119 234 262 314 74 109 133 203 256 287 315 329 334 335 335 343 344 341 338 334 329 328 334 337 342 345 344 338 338 341 348 350 349 351 355 358 357 355 353 349 346 342 339 336 334 331 329 328 326 324 322 320 318 316 314 312 311 309 308 306 304 301 299 296 293 291 289 287 285 284 282 281 281 280
9 18 19 356 329 312 312 332 313 264 256 209 199 202 211 129 65 77 86 273 272 277 309 326 321 317 313 324 338 342 332 329 330 332 337 331 332 337 340 329 327 332 347 348 343 342 348 355 354 350 348 344 341 337 334 333 331 329 327 325 324 323 321 319 317 315 314 312 310 309 307 305 303 301 299 297 294 292 290 288 286 285 283 282 281 280
151 93 74 289 274 266 248 212 210 221 231 221 209 192 13 32 47 59 61 339 317 326 2 358 339 325 310 304 324 340 335 344 347 345 338 328 327 341 354 335 328 330 350 349 338 333 341 350 348 340 336 334 331 329 328 328 326 324 323 322 321 319 318 316 314 312 311 309 308 307 305 303 302 300 299 297 295 294 292 290 288 286 285 284 282 281
165 148 163 207 237 245 230 206 204 214 227 227 184 104 107 75 67 74 93 20 340 356 17 12 357 338 317 304 327 355 350 359 356 345 333 320 324 350 13 353 339 333 340 340 330 324 332 338 338 332 324 323 323 324 324 323 322 320 319 318 316 315 314 312 311 309 308 307 306 305 303 302 301 300 298 297 296 294 292 291 289 287 286 285 284 283
163 161 168 194 228 244 233 215 210 212 205 169 79 86 106 122 127 121 120 114 61 39 42 44 21 338 315 312 329 358 4 1 352 337 324 308 313 339 8 10 347 330 326 324 316 314 321 325 325 321 316 318 320 321 321 319 318 316 315 314 313 312 311 310 308 307 306 306 305 304 303 302 301 299 298 297 295 294 292 291 289 287 286 285 285 284
177 177 169 189 217 233 223 214 212 203 171 155 138 102 54 80 110 119 116 112 102 92 84 103 135 194 273 296 301 323 18 3 342 324 313 297 300 323 355 11 357 325 314 307 301 298 302 304 307 311 312 317 318 318 318 316 315 315 313 313 312 311 310 309 308 307 307 306 305 305 305 303 302 301 299 298 296 295 293 291 290 288 287 286 285 285
190 186 175 190 206 218 214 206 198 188 177 173 161 145 116 115 94 89 92 107 124 134 143 155 178 198 206 250 266 274 64 5 324 312 301 286 287 311 346 356 357 338 310 294 287 284 284 283 294 304 311 314 315 316 316 315 315 315 314 314 313 312 311 311 311 311 311 310 310 310 309 308 307 305 304 302 300 298 296 294 292 291 290 289 288 287
190 196 195 189 185 192 219 218 205 190 179 169 152 136 132 135 120 102 102 106 126 140 146 160 186 210 215 241 259 275 307 45 21 326 286 274 277 293 332 351 355 338 307 285 275 270 274 279 290 301 308 310 313 315 317 318 319 319 319 318 318 318 318 317 317 318 318 318 317 316 316 314 312 310 308 306 304 302 301 299 298 296 295 293 292 290
187 210 211 185 163 165 217 221 207 187 170 147 130 117 124 127 128 131 143 139 135 128 124 178 206 215 212 234 253 277 346 32 33 355 294 287 284 286 300 340 346 327 306 285 271 264 269 279 284 292 299 307 312 316 321 323 325 326 327 327 327 327 327 327 326 325 324 323 321 318 317 315 312 311 309 307 306 304 303 302 300 298 296 294 292 291
180 210 210 183 172 174 202 207 193 175 159 141 132 131 142 148 160 176 178 167 169 178 189 209 219 221 217 245 260 277 349 68 130 138 15 307 293 285 279 283 322 318 306 293 284 278 278 284 284 289 295 305 313 319 326 330 333 335 337 337 337 335 333 331 329 326 324 321 319 317 315 314 312 310 309 308 306 305 303 302 300 298 296 294 292 290
179 196 196 187 187 188 186 180 174 166 157 147 147 154 162 163 171 178 178 173 176 184 196 218 232 244 250 260 268 279 306 196 151 135 109 279 281 283 290 310 329 321 305 300 299 299 296 293 289 288 293 306 314 323 331 337 341 343 344 343 340 336 333 329 326 323 321 319 318 316 315 313 312 311 310 308 307 306 304 303 301 299 297 295 293 291
179 183 181 187 192 190 169 157 157 158 152 136 129 130 135 136 140 146 150 146 143 145 165 320 337 329 302 287 287 288 285 215 130 121 109 249 269 277 292 329 331 321 307 302 300 301 301 297 290 285 286 305 315 326 336 343 346 347 344 341 336 332 329 326 323 321 319 318 317 316 315 314 313 312 311 310 309 308 306 305 303 301 299 297 296 294
179 179 177 183 186 182 171 165 163 159 148 127 114 109 110 104 100 96 89 86 85 83 59 33 14 353 328 328 320 308 290 318 113 122 117 248 278 283 287 312 323 315 308 304 300 295 294 292 289 286 286 304 320 330 339 344 345 343 340 336 332 328 325 323 321 320 319 318 317 316 315 314 314 313 312 311 310 309 308 307 305 303 301 299 297 295
180 176 171 173 177 178 174 170 166 162 155 144 136 131 126 115 104 91 72 67 74 79 67 43 16 342 320 326 315 300 288 311 70 126 132 154 282 290 288 284 291 302 304 306 302 295 287 284 283 283 291 309 323 331 338 342 341 338 334 330 327 324 322 321 320 320 319 318 317 316 316 315 314 313 313 312 311 310 309 308 306 305 303 301 299 297
181 171 162 164 167 171 174 174 172 168 163 157 153 148 139 125 106 82 41 86 109 93 76 47 355 315 310 310 292 280 280 296 312 138 137 131 225 283 285 281 287 297 303 304 299 288 280 276 274 278 295 302 310 320 331 334 334 332 328 325 323 322 321 320 320 319 318 317 317 316 315 315 314 313 313 312 311 310 309 309 307 306 304 303 300 298
168 157 144 139 139 148 170 181 179 176 173 169 164 159 150 135 125 145 235 191 138 107 95 85 312 296 296 293 285 279 281 277 253 190 137 118 164 264 274 282 288 296 302 303 295 283 274 268 268 279 293 295 298 307 318 325 326 325 322 320 319 319 318 318 318 317 316 316 315 315 315 314 314 313 312 312 311 311 310 309 309 307 306 305 303 300
117 103 91 78 66 56 42 57 136 169 179 176 174 171 168 157 162 184 199 165 139 121 125 168 226 261 278 290 297 301 301 274 240 183 133 115 211 259 269 288 292 295 308 309 305 297 285 274 269 273 279 284 289 297 305 316 317 316 313 314 314 314 315 315 315 315 314 314 314 314 314 313 313 313 312 312 311 311 311 310 310 309 307 305 301 298
64 65 60 46 37 32 31 33 32 39 93 163 174 179 181 172 170 171 164 150 144 146 163 191 214 239 269 302 317 322 307 280 239 173 135 129 247 265 276 292 292 297 323 325 322 316 309 296 282 269 264 274 280 286 290 299 301 301 302 306 307 308 309 310 311 312 313 313 313 313 313 312 312 312 312 312 311 311 311 311 310 309 306 303 300 296
59 56 38 15 8 8 12 18 25 32 43 68 125 162 170 161 158 155 149 152 156 162 173 193 210 226 247 292 311 311 294 274 232 178 151 163 246 263 272 293 299 305 332 344 334 321 313 307 294 275 260 274 280 285 288 290 289 289 290 296 298 300 302 306 308 310 311 311 311 311 311 311 311 311 311 311 311 310 310 310 309 308 304 301 297 292
99 81 52 354 345 349 1 8 14 22 34 48 70 112 148 156 157 156 157 165 167 169 174 191 206 217 226 239 247 255 267 259 214 185 175 193 244 261 261 285 298 306 312 335 311 300 303 302 298 291 284 293 295 294 292 288 285 283 285 289 288 292 298 303 307 309 309 309 309 309 309 309 309 309 309 309 309 309 308 308 307 306 303 298 293 290
116 101 69 4 355 360 6 10 10 9 7 20 85 168 176 175 170 168 170 178 178 175 173 184 200 217 228 236 240 243 250 247 206 190 188 198 236 264 269 284 296 301 300 277 248 248 266 285 295 301 303 302 299 296 292 285 280 278 280 286 286 289 296 302 304 305 304 305 305 305 306 306 306 306 307 307 306 306 305 305 303 302 299 296 293 293
125 114 81 33 13 7 3 5 2 351 319 291 231 196 187 185 180 179 181 190 194 191 182 186 199 216 232 240 245 248 247 244 230 217 207 207 231 263 281 288 294 298 300 289 276 267 268 278 291 300 304 302 299 291 283 279 278 277 271 271 277 286 292 298 298 297 296 298 298 299 300 301 301 301 303 303 302 302 302 301 300 299 298 297 296 296
138 129 99 48 6 347 335 335 330 314 287 268 243 210 189 188 191 194 195 199 204 206 205 199 203 211 223 233 246 255 255 247 248 250 250 238 246 269 285 284 287 293 296 293 291 290 286 288 293 299 303 304 302 294 269 260 263 269 263 256 263 273 281 285 288 289 291 292 291 289 289 290 291 293 295 296 297 298 299 299 299 299 298 297 295 293
163 176 195 200 220 243 261 272 273 267 261 258 249 232 206 199 200 202 205 204 208 213 220 219 216 214 216 223 236 249 259 255 260 267 275 260 253 264 279 279 283 286 290 291 293 296 296 296 297 298 300 300 302 300 285 264 263 275 280 273 271 272 275 275 275 278 284 287 288 287 285 283 282 283 285 292 295 297 298 299 299 298 297 295 292 288
184 197 207 206 208 215 222 228 227 226 229 238 243 240 223 212 206 204 206 206 211 218 229 233 235 234 232 230 233 240 250 258 268 275 275 257 243 245 260 273 277 278 275 287 295 300 300 299 299 298 296 292 294 299 304 305 303 299 294 290 287 283 280 276 273 272 276 280 283 286 286 284 283 284 287 293 297 299 299 299 297 295 294 292 289 287
196 205 210 206 205 205 208 214 217 218 217 218 224 228 224 215 208 205 208 210 214 219 228 233 240 244 245 248 247 245 246 252 259 263 264 250 239 237 251 268 273 270 261 273 285 293 295 295 298 299 297 291 288 292 300 308 309 306 301 295 289 283 278 276 273 270 268 275 280 285 287 288 290 291 293 296 297 297 295 292 291 290 290 289 287 286
203 209 211 206 200 198 198 206 210 212 210 209 209 208 205 205 206 211 221 222 224 225 227 231 236 243 248 254 257 257 255 251 249 248 247 236 229 230 243 260 268 270 264 263 266 272 277 282 286 291 296 297 297 298 299 301 304 306 306 303 296 283 269 271 271 269 268 273 281 286 289 291 293 294 291 289 288 288 288 287 287 287 288 289 288 286
207 211 214 208 200 193 193 203 205 206 203 201 194 183 167 176 200 242 260 247 239 235 231 230 235 243 250 255 257 258 256 253 248 242 233 222 217 219 229 243 257 264 265 260 256 257 261 269 275 280 284 290 295 298 300 300 302 306 310 309 306 302 297 292 284 276 271 271 277 283 288 289 288 285 284 284 284 284 285 287 288 288 288 286 285 286
204 207 209 206 201 200 206 209 205 195 185 177 162 156 158 172 192 230 266 261 249 235 223 220 230 246 252 249 249 249 247 249 246 240 229 222 220 221 226 235 244 252 257 258 256 255 256 264 271 275 279 283 288 291 292 295 299 303 306 304 301 300 301 297 290 283 279 274 271 274 284 290 291 291 289 289 286 282 280 282 284 284 283 276 271 273
196 196 192 191 194 202 211 205 189 168 154 150 161 179 193 193 194 198 206 232 241 238 217 206 225 249 259 262 258 250 243 241 238 236 232 227 224 224 228 233 238 244 250 256 258 257 255 260 267 273 277 283 287 289 290 291 294 296 296 296 299 300 299 293 284 269 281 283 280 280 286 291 293 293 292 289 286 282 280 277 278 279 280 276 269 262
193 190 187 187 190 191 187 176 166 158 152 162 185 202 208 203 197 195 197 210 221 227 220 209 216 235 255 263 263 256 246 239 236 234 232 227 225 225 228 232 234 237 241 253 260 262 260 260 263 268 274 280 283 285 288 292 293 292 288 291 298 303 302 299 298 295 288 289 289 289 289 289 289 288 287 287 286 285 282 279 278 277 277 277 274 268
207 206 200 194 187 178 166 166 167 169 170 181 198 211 215 212 211 210 207 210 219 227 229 222 226 238 249 257 257 254 251 251 249 245 240 233 228 225 228 231 234 236 234 243 256 266 272 268 267 269 273 277 279 281 284 288 290 290 288 287 287 286 284 293 301 305 300 295 292 289 286 286 288 289 289 287 286 284 282 279 276 274 272 271 269 268
211 212 210 201 190 179 177 178 178 177 176 184 196 209 219 219 217 214 209 212 220 227 230 230 236 246 253 253 254 257 264 276 279 274 267 255 247 240 233 231 233 235 235 236 243 254 268 274 276 277 277 275 275 276 280 284 288 289 288 288 285 281 276 283 291 296 297 296 294 291 286 287 291 294 294 291 288 285 282 280 279 277 274 270 267 265
201 202 202 191 184 181 183 179 176 173 179 190 202 213 222 219 216 211 211 214 221 230 232 225 227 240 256 267 277 289 296 297 298 296 293 281 269 257 245 239 237 236 237 240 242 246 252 264 275 282 286 281 276 273 273 278 283 286 287 288 288 285 283 283 284 286 288 291 292 292 291 293 294 294 294 294 293 289 284 280 278 276 276 272 268 265
179 179 176 171 172 179 186 180 178 181 195 206 215 219 222 217 213 211 214 217 221 227 231 220 217 226 248 272 294 308 309 307 304 301 298 294 290 285 276 264 255 248 246 248 250 251 252 256 263 272 281 283 281 278 274 273 275 279 284 288 289 289 288 286 284 283 283 286 289 293 299 302 300 297 294 295 294 291 287 281 275 271 270 270 268 266
179 183 182 182 189 200 208 203 200 203 211 217 222 223 224 217 214 213 217 211 214 220 226 212 213 232 260 283 301 309 308 304 303 303 303 302 300 298 296 293 283 271 262 261 261 259 257 253 252 253 260 269 275 277 278 275 273 274 279 284 288 288 287 286 287 288 287 286 286 289 295 298 299 299 300 299 296 293 290 286 279 273 267 266 266 266
191 198 204 205 210 215 219 216 212 212 216 221 225 225 225 222 221 219 208 192 183 184 186 194 220 257 281 294 302 304 301 297 297 299 303 305 305 305 305 303 298 292 283 276 271 267 263 257 249 242 240 247 257 268 276 276 275 273 275 277 281 283 285 287 289 291 292 289 287 285 285 284 286 291 296 297 296 294 293 291 286 280 271 266 264 265
197 203 206 207 209 214 217 215 213 213 217 218 218 216 210 209 205 198 182 169 165 165 173 189 220 264 288 295 298 298 294 294 296 299 303 306 308 308 304 303 303 301 297 291 286 281 278 273 260 247 237 235 240 252 268 274 277 276 273 271 271 275 280 285 289 293 294 293 292 290 288 286 286 287 290 292 293 294 294 293 291 287 281 273 268 267
199 203 204 204 208 211 213 210 208 207 208 208 207 203 195 188 182 173 160 156 158 167 179 195 223 264 290 295 296 295 295 297 299 301 304 305 304 302 300 302 304 306 305 304 303 301 298 297 294 281 259 240 237 239 253 265 276 281 280 274 271 272 277 285 291 294 296 295 294 294 293 292 292 291 290 291 293 294 295 294 292 290 288 283 279 276